{"data":{"norad_id":69911,"epoch":"2026-09-19T23:32:53.282400Z","epoch_age_seconds":62629,"freshness":"FRESH","line1":"1 69911U 26156AU  26262.98117225  .00000770  00000+0  83792-4 0  9995","line2":"2 69911  97.7453 162.0688 0000762 207.2042 152.9137 14.90828482 11125","mean_motion":14.90828482,"eccentricity":7.62e-5,"inclination_deg":97.7453,"raan_deg":162.0688,"arg_perigee_deg":207.2042,"mean_anomaly_deg":152.9137,"bstar":8.3792e-5,"rev_number":1112,"period_min":96.59058821228,"perigee_km":594.81955440824,"apogee_km":595.88231396941,"semimajor_km":6973.4879341888,"source":"CELESTRAK","updated_at":"2026-09-20T09:00:25.176224Z"}}